Location: Geography Hall
(41.1195°N, 80.5706°W)
Time: 23:19:16
(UTC+00:00)

Feng Yun 1-1 Rocket - Pass Details

Date: 29 October 2020
Orbit: 829 x 934 km, 99.2° (Epoch: 03 December)

Event Time Altitude Azimuth Distance (km) Brightness Sun altitude
Rises 23:27:21 0° 166° (SSE) 3,553 7.4 -13.0°
Reaches altitude 10° 23:29:45 10° 167° (SSE) 2,622 6.7 -13.5°
Maximum altitude 23:35:39 83° 255° (WSW) 946 4.5 -14.6°
Drops below altitude 10° 23:41:37 10° 344° (NNW) 2,649 6.9 -15.7°
Sets 23:44:03 0° 346° (NNW) 3,592 7.6 -16.2°
